Preview of NWS' New Version of Forecast
This preview is not operational and should not be used for support decisions.

Regional Weather Roundup (RWR)

Issued by National Weather Service (NWS)

                            
000
ASUS45 KABQ 212310
RWRNM 
NEW MEXICO REGIONAL WEATHER ROUNDUP
NATIONAL WEATHER SERVICE ALBUQUERQUE NM
500 PM MDT WED AUG 21 2019

NOTE: "FAIR" MEANS FEW OR NO CLOUDS BELOW 12,000 FEET AGL WITH NO
       SIGNIFICANT WEATHER OR OBSTRUCTIONS TO VISION.

      THIS PRODUCT IS RELEASED AS TWO VERSIONS.  ONE VERSION NEAR
      THE TOP OF THE HOUR CONTAINING PRELIMINARY DATA FROM ALBUQUERQUE
      AND OTHER STATIONS.  A FINAL VERSION WITH ADDITIONAL DATA IS 
      ISSUED ABOUT 10 MINUTES AFTER THE HOUR.
 
NMZ501-503-504-510>518-220000-
NORTHWEST PLATEAU/NORTHCENTRAL MOUNTAINS
  
CITY           SKY/WX    TMP DP  RH WIND       PRES   REMARKS
FARMINGTON     FAIR      90  31  12 NE22      30.04F                  
LOS ALAMOS       N/A     85  32  14 N15G22    30.23F                  
SANTA FE       PTSUNNY   83  41  22 E21G35    30.15S                  
TAOS             N/A     60  54  80 NE18G26   30.34F                  
ANGEL FIRE     CLOUDY    57  48  70 NE16      30.49R                  

$$
NMZ402-403-502-505>509-220000-
WESTCENTRAL MOUNTAINS/SOUTHWEST MOUNTAINS
  
CITY           SKY/WX    TMP DP  RH WIND       PRES   REMARKS
GALLUP         FAIR      93  27   9 SW15G25   30.13F                  
GRANTS         FAIR      84  35  16 S16G23    30.20F                  
SILVER CITY    CLOUDY    80  50  35 N24G32    30.14R                  

$$
NMZ407-409-411-412-220000-
SOUTHERN DESERTS
  
CITY           SKY/WX    TMP DP  RH WIND       PRES   REMARKS
DEMING         FAIR      88  52  29 N20G31    29.98S                  
LAS CRUCES     FAIR      96  41  15 NE12      30.00F                  
HOLLOMAN AFB   FAIR      95  50  21 N7        29.99F                  
ALAMOGORDO     FAIR      95  46  18 NW3       29.98F                  
T OR C         PTSUNNY   72  60  66 NW23G37   30.08F                  

$$
NMZ519>523-220000-
CENTRAL VALLEYS/CENTRAL HIGHLANDS
  
CITY           SKY/WX    TMP DP  RH WIND       PRES   REMARKS
ALBUQUERQUE    PTSUNNY   93  39  15 VRB3      30.05F                  
DOUBLE EAGLE   PTSUNNY   91  39  16 W8        30.10F                  
MORIARTY ARPT  TSTM      76  53  45 NE13      30.21R                  
CLINES CORNERS PTSUNNY   69  46  43 N16G25      N/A                   
BELEN          FAIR      90  36  15 W18G28    30.07F                  
SOCORRO        FAIR      82  42  24 W18G26    30.07S                  

$$
NMZ524>526-539-540-220000-
SOUTHCENTRAL MOUNTAINS
  
CITY           SKY/WX    TMP DP  RH WIND       PRES   REMARKS
RUIDOSO        FAIR      73  54  49 S6        30.25S                  

$$
NMZ527>531-220000-
NORTHEAST HIGHLANDS/NORTHEAST PLAINS
  
CITY           SKY/WX    TMP DP  RH WIND       PRES   REMARKS
LAS VEGAS      FAIR      73  45  36 NW16      30.23F                  
RATON          RAIN      63  52  67 S13       30.29R                  
CLAYTON        FAIR      88  52  29 S8        30.05F                  

$$
NMZ532>537-220000-
EASTCENTRAL PLAINS
  
CITY           SKY/WX    TMP DP  RH WIND       PRES   REMARKS
SANTA ROSA     CLOUDY    85  47  26 W13       30.06R THUNDER          
TUCUMCARI      FAIR      96  51  21 S12       29.94F                  
CANNON AFB     FAIR      93  49  21 SE13      30.02F                  
CLOVIS AIRPORT FAIR      94  51  23 S14       30.02F                  

$$
NMZ028-029-538-220000-
SOUTHEAST PLAINS
  
CITY           SKY/WX    TMP DP  RH WIND       PRES   REMARKS
ROSWELL        FAIR      98  49  18 S12G17    29.96F HX  95           
ARTESIA        FAIR      95  54  24 S12G18    29.97F                  
CARLSBAD       FAIR      96  50  20 MISG      29.93F                  
HOBBS          MOSUNNY   95  48  20 SE12G23   29.99F                  


$$